Galesburg, IL

4:42 AM CST on December 08, 2019 (GMT -0600)
Galesburg Municipal

Weather History for KGBG - May, 2019

Change the Weather History Date:

Thursday, May 2, 2019

  Actual Average Record
Temperature  
Mean Temperature 53 °F -  
Max Temperature 55 °F 67 °F 89 °F (1959)
Min Temperature 50 °F 44 °F 31 °F (1978)
Degree Days  
Heating Degree Days 12    
Growing Degree Days 3 (Base 50)    
Moisture  
Dew Point 52 °F    
Average Humidity 94    
Maximum Humidity 100    
Minimum Humidity 85    
Precipitation  
Precipitation 0.96 in - - ()
Sea Level Pressure  
Sea Level Pressure 30.07 in    
Wind  
Wind Speed 8 mph (NNE)    
Max Wind Speed 16 mph    
Max Gust Speed -    
Visibility 8 miles    
Events Rain , Thunderstorm    
Averages and records for this station are not official NWS values.
T = Trace of Precipitation, MM = Missing Value Source: NWS Daily Summary

Daily Weather History Graph

Daily Weather History Graph

Search for Another Location

Airport or City:

Astronomy

May. 02, 2019 Rise Set
Actual Time 5:58 AM CDT 7:59 PM CDT
Civil Twilight 5:28 AM CDT 8:29 PM CDT
Nautical Twilight 4:52 AM CDT 9:05 PM CDT
Astronomical Twilight 4:12 AM CDT 9:45 PM CDT
Moon 5:13 AM CDT (5/2) 5:44 PM CDT (5/2)
Length of Visible Light 15h 00m
Length of Day
14h 00m
Waning Crescent, 5% of the Moon is Illuminated
May 2
Waning Crescent
May 4
New
May 11
First Quarter
May 18
Full
May 26
Last Quarter

Hourly Weather History & Observations

Time (CDT) Temp. Dew Point Humidity Pressure Visibility Wind Dir Wind Speed Gust Speed Precip Events Conditions
12:15 AM 56.3 °F 53.6 °F 91% 30.05 in 7.0 mi East 4.6 mph - N/A   Mostly Cloudy
12:35 AM 55.4 °F 53.4 °F 93% 30.05 in 7.0 mi NE 4.6 mph - N/A   Mostly Cloudy
12:55 AM 55.4 °F 54.3 °F 96% 30.05 in 7.0 mi WNW 4.6 mph - N/A   Overcast
1:15 AM 55.0 °F 54.5 °F 98% 30.05 in 5.0 mi West 9.2 mph - N/A   Overcast
1:35 AM 54.9 °F 54.1 °F 97% 30.04 in 5.0 mi ENE 8.1 mph - N/A   Overcast
1:55 AM 54.7 °F 54.0 °F 97% 30.03 in 7.0 mi NE 6.9 mph - N/A   Overcast
2:15 AM 54.5 °F 53.8 °F 97% 30.04 in 7.0 mi NE 6.9 mph - N/A   Mostly Cloudy
2:35 AM 54.5 °F 53.8 °F 97% 30.04 in 5.0 mi ENE 6.9 mph - N/A   Mostly Cloudy
2:55 AM 54.1 °F 53.6 °F 98% 30.03 in 5.0 mi NE 8.1 mph - N/A Thunderstorm Overcast
3:15 AM 54.1 °F 53.6 °F 98% 30.03 in 5.0 mi ENE 8.1 mph - N/A   Overcast
3:35 AM 54.3 °F 53.6 °F 97% 30.04 in 5.0 mi NE 8.1 mph - N/A Rain Light Rain
3:55 AM 54.5 °F 54.0 °F 98% 30.03 in 5.0 mi NE 8.1 mph - 0.01 in Rain , Thunderstorm Light Thunderstorms and Rain
4:15 AM 54.5 °F 54.1 °F 99% 30.03 in 3.0 mi ENE 6.9 mph - 0.07 in Rain , Thunderstorm Heavy Thunderstorms and Rain
4:35 AM 54.5 °F 54.5 °F 100% 30.01 in 3.0 mi ENE 6.9 mph - 0.14 in Rain , Thunderstorm Thunderstorms and Rain
4:55 AM 54.5 °F 54.5 °F 100% 30.03 in 3.0 mi West 8.1 mph - 0.17 in Rain , Thunderstorm Light Thunderstorms and Rain
5:15 AM 54.5 °F 54.5 °F 100% 30.02 in 2.5 mi NE 8.1 mph - 0.05 in   Overcast
5:35 AM 54.5 °F 54.5 °F 100% 30.02 in 2.0 mi ENE 10.4 mph - 0.16 in Rain , Thunderstorm Rain
5:55 AM 54.3 °F 54.3 °F 100% 30.05 in 1.2 mi WNW 8.1 mph - 0.48 in Rain Heavy Rain
6:15 AM 53.4 °F 53.4 °F 100% 30.08 in 3.0 mi WNW 8.1 mph - 0.18 in Rain Heavy Rain
6:35 AM 53.1 °F 53.1 °F 100% 30.04 in 5.0 mi ENE 16.1 mph - 0.29 in Rain Heavy Rain
6:55 AM 53.2 °F 53.2 °F 100% 30.04 in 7.0 mi ENE 12.7 mph - 0.30 in Rain Light Rain
7:15 AM 53.1 °F 53.1 °F 100% 30.03 in 10.0 mi NE 13.8 mph - N/A   Overcast
7:35 AM 53.6 °F 53.6 °F 100% 30.03 in 10.0 mi NE 12.7 mph - N/A   Scattered Clouds
7:55 AM 54.0 °F 53.8 °F 99% 30.03 in 10.0 mi NE 10.4 mph - N/A   Scattered Clouds
8:15 AM 55.0 °F 54.7 °F 99% 30.04 in 10.0 mi ENE 6.9 mph - N/A   Scattered Clouds
8:35 AM 55.8 °F 54.5 °F 96% 30.07 in 10.0 mi ENE 8.1 mph - N/A   Mostly Cloudy
8:55 AM 55.6 °F 54.5 °F 96% 30.08 in 10.0 mi WNW 5.8 mph - N/A   Overcast
9:15 AM 55.0 °F 54.3 °F 97% 30.08 in 10.0 mi West 9.2 mph - N/A   Overcast
9:35 AM 54.5 °F 54.0 °F 98% 30.09 in 7.0 mi WNW 9.2 mph - N/A   Overcast
9:55 AM 54.0 °F 53.8 °F 99% 30.08 in 7.0 mi West 10.4 mph - N/A   Overcast
10:15 AM 53.8 °F 53.6 °F 99% 30.09 in 5.0 mi WNW 10.4 mph - N/A   Overcast
10:35 AM 53.8 °F 53.6 °F 99% 30.10 in 2.5 mi West 10.4 mph - N/A   Overcast
10:55 AM 53.8 °F 53.6 °F 99% 30.09 in 3.0 mi West 12.7 mph - N/A   Drizzle
11:15 AM 53.6 °F 53.6 °F 100% 30.07 in 3.0 mi ENE 13.8 mph - N/A   Light Drizzle
11:35 AM 54.1 °F 54.0 °F 99% 30.06 in 7.0 mi ENE 12.7 mph - N/A   Overcast
11:55 AM 54.5 °F 53.8 °F 97% 30.08 in 10.0 mi NW 13.8 mph - N/A   Overcast
12:15 PM 54.0 °F 53.1 °F 97% 30.09 in 10.0 mi West 15.0 mph - N/A   Overcast
12:35 PM 53.6 °F 52.9 °F 97% 30.10 in 5.0 mi West 16.1 mph - N/A   Overcast
12:55 PM 53.6 °F 52.9 °F 97% 30.10 in 4.0 mi WNW 12.7 mph - N/A   Overcast
1:15 PM 53.6 °F 52.7 °F 97% 30.10 in 7.0 mi WNW 15.0 mph - N/A   Overcast
1:35 PM 54.5 °F 52.9 °F 94% 30.10 in 10.0 mi ENE 16.1 mph - N/A   Overcast
1:55 PM 55.4 °F 52.7 °F 91% 30.10 in 10.0 mi ENE 12.7 mph - N/A   Overcast
2:15 PM 55.2 °F 52.2 °F 89% 30.10 in 10.0 mi ENE 10.4 mph - N/A   Overcast
2:35 PM 54.9 °F 51.4 °F 88% 30.10 in 10.0 mi ENE 11.5 mph - N/A   Overcast
2:55 PM 54.9 °F 51.6 °F 89% 30.10 in 10.0 mi ENE 10.4 mph - N/A   Overcast
3:15 PM 54.7 °F 51.3 °F 88% 30.10 in 10.0 mi ENE 9.2 mph - N/A   Overcast
3:35 PM 54.7 °F 51.1 °F 88% 30.10 in 10.0 mi WNW 9.2 mph - N/A   Overcast
3:55 PM 54.7 °F 51.3 °F 88% 30.10 in 10.0 mi ENE 10.4 mph - N/A   Overcast
4:15 PM 55.2 °F 50.9 °F 85% 30.09 in 10.0 mi NW 10.4 mph - N/A   Overcast
4:35 PM 54.5 °F 50.9 °F 88% 30.09 in 10.0 mi WNW 10.4 mph - N/A   Overcast
4:55 PM 54.3 °F 50.9 °F 88% 30.08 in 10.0 mi West 12.7 mph - N/A   Overcast
5:15 PM 54.5 °F 50.9 °F 88% 30.09 in 10.0 mi NE 11.5 mph - N/A   Overcast
5:35 PM 53.6 °F 50.0 °F 88% 30.09 in 10.0 mi NW 8.1 mph - N/A   Overcast
5:55 PM 54.0 °F 50.2 °F 87% 30.08 in 10.0 mi NE 6.9 mph - N/A   Overcast
6:15 PM 54.3 °F 50.5 °F 87% 30.08 in 10.0 mi NE 9.2 mph - N/A   Overcast
6:35 PM 54.1 °F 50.0 °F 86% 30.08 in 10.0 mi ENE 8.1 mph - N/A   Scattered Clouds
6:55 PM 54.0 °F 49.8 °F 86% 30.08 in 10.0 mi ENE 9.2 mph - N/A   Clear
7:15 PM 53.8 °F 50.2 °F 88% 30.09 in 10.0 mi NE 6.9 mph - N/A   Scattered Clouds
7:35 PM 53.6 °F 49.5 °F 86% 30.09 in 10.0 mi NE 6.9 mph - N/A   Scattered Clouds
7:55 PM 52.0 °F 48.9 °F 89% 30.09 in 10.0 mi NE 4.6 mph - N/A   Mostly Cloudy
8:15 PM 52.2 °F 49.3 °F 90% 30.09 in 10.0 mi ENE 6.9 mph - N/A   Overcast
8:35 PM 52.7 °F 49.8 °F 90% 30.10 in 10.0 mi ENE 5.8 mph - N/A   Overcast
8:55 PM 52.7 °F 50.0 °F 91% 30.10 in 10.0 mi NE 5.8 mph - N/A   Overcast
9:15 PM 52.7 °F 49.6 °F 89% 30.11 in 10.0 mi NE 6.9 mph - N/A   Overcast
9:35 PM 52.7 °F 49.6 °F 89% 30.12 in 10.0 mi NE 6.9 mph - N/A   Overcast
9:55 PM 52.7 °F 49.6 °F 89% 30.12 in 10.0 mi NE 6.9 mph - N/A   Overcast
10:15 PM 52.5 °F 49.6 °F 90% 30.12 in 10.0 mi NE 6.9 mph - N/A   Overcast
10:35 PM 52.2 °F 49.3 °F 90% 30.12 in 10.0 mi NE 6.9 mph - N/A   Overcast
10:55 PM 51.6 °F 49.1 °F 91% 30.12 in 10.0 mi NE 5.8 mph - N/A   Overcast
11:15 PM 50.5 °F 48.4 °F 92% 30.10 in 10.0 mi NE 5.8 mph - N/A   Overcast
11:35 PM 50.5 °F 49.3 °F 95% 30.12 in 10.0 mi NE 3.5 mph - N/A   Overcast
11:55 PM 50.5 °F 49.3 °F 95% 30.12 in 10.0 mi NE 5.8 mph - N/A   Overcast